Content
SEND FEEDBACK

Daily
Averages
Monthly
Summary
United States of America

HAZELWOOD, MISSOURI


Home > North America > United States > Missouri
Elevation: 570 feet     Latitude: 38 45N     Longitude: 090 22W

WEATHER
 
SELECT A DAY
Number of Records: 196,268;   Date Range: 1/1/95 - 7/20/14
 
SHARE

PRINT THIS DATA

[ ← Previous Day ]
WEATHER ALMANAC - JANUARY 12, 2013
[ Next Day → ]
[ °C ]   °F
Weather ElementAverageHighLow
Temperature43.1 °F55.9 °F (2:54 am)32 °F (9:54 pm)
Dewpoint35.5 °F46.9 °F (2:54 am)28 °F (9:54 pm)
Humidity76.5 %93 % (6:54 am)50 % (11:54 am)
Barometer29.91 in29.97 in (10:54 am)29.83 in (1:54 am)
Wind Speed7.9 mph16.1 mph (7:19 pm)
Wind Gust21.9 mph (7:19 pm)
Weather ElementAverage
Visibility8.6 mi
Wind DirectionWSW (253 °)

Weather ElementTotal
Precipitation0.45 in
Heating Degree Days21.1 (Base 65)
Averaged from 27 records on January 12, 2013
WEATHER CONDITIONS BREAKOUT
WIND DIRECTION BREAKOUT
WEATHER BY HOUR - JANUARY 12, 2013
[ °C ]   °F
Local TimeTemperatureDewpointHumidityBarometerVisibilityWind DirectionWind SpeedGust SpeedPrecipitationEventsConditions
1:54 AM55.4 °F46.4 °F72 %29.83 in10.0 miSSW (200°)5.8 mphClear
2:54 AM55.9 °F46.9 °F72 %29.83 in10.0 miSSW (210°)6.9 mphClear
3:54 AM55.0 °F46.9 °F74 %29.84 in10.0 miSSW (200°)3.5 mphClear
4:54 AM48.9 °F45.0 °F86 %29.84 in10.0 miENE (60°)3.5 mphClear
5:54 AM48.0 °F45.0 °F89 %29.87 in10.0 miCalmClear
6:54 AM45.0 °F43.0 °F93 %29.91 in10.0 miCalmClear
7:54 AM45.0 °F43.0 °F93 %29.92 in10.0 miCalmMostly Cloudy
8:54 AM48.0 °F46.0 °F93 %29.94 in10.0 miCalmMostly Cloudy
9:54 AM54.0 °F36.0 °F51 %29.95 in10.0 miNNW (330°)9.2 mphClear
10:54 AM53.6 °F35.6 °F51 %29.97 in9.0 miNNW (330°)9.2 mphPartly Cloudy
11:54 AM53.1 °F35.1 °F50 %29.94 in6.0 miNNW (340°)8.1 mphHaze
12:54 PM50.0 °F34.0 °F54 %29.94 in10.0 miNNW (330°)8.1 mphOvercast
1:54 PM46.9 °F33.1 °F59 %29.92 in10.0 miNNW (340°)8.1 mphOvercast
2:54 PM46.0 °F32.0 °F58 %29.92 in10.0 miNNE (20°)9.2 mphOvercast
3:54 PM44.1 °F32.0 °F63 %29.91 in10.0 miNorth (350°)10.4 mphOvercast
4:54 PM42.1 °F30.0 °F62 %29.88 in10.0 miNorth (360°)9.2 mphOvercast
5:54 PM39.0 °F33.1 °F79 %29.87 in4.0 miNorth (360°)4.6 mph0.07 inRainRain
6:54 PM37.0 °F32.0 °F82 %29.91 in8.0 miNNW (340°)12.7 mph19.6 mph0.12 inRainLight Rain
7:19 PM35.6 °F32.0 °F87 %29.91 in6.0 miNNW (330°)16.1 mph21.9 mph0.03 inRainLight Rain
7:54 PM35.1 °F32.0 °F89 %29.94 in5.0 miNNW (330°)10.4 mph0.08 inRainRain
8:54 PM33.1 °F30.0 °F89 %29.90 in5.0 miNorth (360°)10.4 mph19.6 mph0.11 inRainRain
9:54 PM32.0 °F28.0 °F85 %29.93 in8.0 miNNW (330°)13.8 mph19.6 mph0.02 inRainLight Rain
10:14 PM32.0 °F28.4 °F87 %29.93 in5.0 miNW (320°)12.7 mph21.9 mphRainLight Freezing Rain
10:54 PM32.0 °F28.9 °F88 %29.96 in5.0 miNNW (340°)9.2 mph0.02 inRainLight Freezing Rain
11:46 PM32.0 °F28.4 °F87 %29.96 in10.0 miNNW (340°)11.5 mph19.6 mph0.00 inOvercast
11:50 PM32.0 °F28.4 °F87 %29.94 in10.0 miNorth (360°)11.5 mph19.6 mph0.00 inOvercast
11:54 PM32.0 °F28.0 °F85 %29.94 in10.0 miNorth (350°)8.1 mph0.00 inOvercast
Hourly data recorded from KSUS, located miles away from Hazelwood, Missouri







STORIES FROM OUR PARTNERS